Tracking 19149 objects as of 22-Apr-2018
HD Live streaming from Space Station
objects crossing your sky now

FENGYUN 1C DEB

Track FENGYUN 1C DEB now!
10-day predictions


NORAD ID: 37412
Int'l Code: 1999-025EGE
Perigee: 786.8 km
Apogee: 817.7 km
Inclination: 98.9 °
Period: 100.8 minutes
Semi major axis: 7173 km
RCS: 0.011 m2 (small)
Launch date: May 10, 1999
Source: People's Republic of China (PRC)
Launch site: Taiyaun Space Center, China (TSC)

Note: This is SATELLITE DEBRIS
aabbcc
Your satellite tracking list
Your tracking list is empty




NASA's NSSDC Master Catalog

Two Line Element Set (TLE):
1 37412U 99025EGE 18111.44656409 +.00001765 +00000-0 +71450-3 0  9991
2 37412 098.9488 211.6868 0021517 240.0145 119.8900 14.28988964223519
Source of the keplerian elements: AFSPC